When you browse on this site, cookies collect data to enhance your experience and personalize the content and advertising you see.
Visit our Privacy Policy to learn more. By continuing to use the site, you agree to this use of cookies and data.
  • In Denmark
  • List of Countries
  • For 7 days
  • Water Temperature
  • Weather Map
  • Weather Widgets
  • user-avatar
    Login

    Hourly Weather Szczepkow

    Today, 16 October, Wednesday

    Time Temperature Precipitation Wind Pressure Humidity
    00:00 +12°C° 0 mm 4 mps 704 mmHg 86%
    01:00 +12°C° 0 mm 4 mps 704 mmHg 89%
    02:00 +12°C° 0 mm 4 mps 705 mmHg 90%
    03:00 +12°C° 0 mm 4 mps 705 mmHg 91%
    04:00 +11°C° 0 mm 4 mps 705 mmHg 91%
    05:00 +11°C° 0 mm 4 mps 706 mmHg 88%
    06:00 +10°C° 0 mm 5 mps 707 mmHg 85%
    07:00 +10°C° 0 mm 5 mps 707 mmHg 82%
    08:00 +10°C° 0.2 mm 5 mps 708 mmHg 85%
    09:00 +9°C° 0.2 mm 5 mps 708 mmHg 87%
    10:00 +9°C° 0.2 mm 5 mps 709 mmHg 89%
    11:00 +10°C° 0.1 mm 5 mps 709 mmHg 83%
    12:00 +12°C° 0.1 mm 5 mps 709 mmHg 77%
    13:00 +12°C° 0.1 mm 5 mps 710 mmHg 71%
    14:00 +12°C° 0 mm 5 mps 710 mmHg 71%
    15:00 +12°C° 0 mm 4 mps 709 mmHg 71%
    16:00 +12°C° 0 mm 3 mps 709 mmHg 70%
    17:00 +11°C° 0 mm 3 mps 709 mmHg 73%
    18:00 +10°C° 0 mm 3 mps 710 mmHg 76%
    19:00 +9°C° 0 mm 3 mps 710 mmHg 79%
    20:00 +8°C° 0 mm 3 mps 710 mmHg 79%
    21:00 +8°C° 0 mm 3 mps 710 mmHg 79%
    22:00 +8°C° 0 mm 3 mps 710 mmHg 79%
    23:00 +8°C° 0 mm 3 mps 710 mmHg 79%

    Tomorrow, 17 October, Thursday

    Time Temperature Precipitation Wind Pressure Humidity
    00:00 +8°C° 0 mm 3 mps 710 mmHg 79%
    01:00 +8°C° 0 mm 3 mps 710 mmHg 78%
    02:00 +8°C° 0 mm 2 mps 710 mmHg 79%
    03:00 +7°C° 0 mm 2 mps 710 mmHg 79%
    04:00 +7°C° 0 mm 2 mps 710 mmHg 79%
    05:00 +7°C° 0 mm 2 mps 710 mmHg 79%
    06:00 +8°C° 0 mm 2 mps 710 mmHg 78%
    07:00 +8°C° 0 mm 2 mps 710 mmHg 77%
    08:00 +9°C° 0 mm 2 mps 710 mmHg 74%
    09:00 +12°C° 0 mm 2 mps 711 mmHg 71%
    10:00 +14°C° 0 mm 2 mps 711 mmHg 68%
    11:00 +14°C° 0 mm 2 mps 711 mmHg 67%
    12:00 +14°C° 0 mm 3 mps 711 mmHg 66%
    13:00 +16°C° 0 mm 3 mps 711 mmHg 65%
    14:00 +15°C° 0 mm 2 mps 711 mmHg 69%
    15:00 +15°C° 0 mm 2 mps 711 mmHg 73%
    16:00 +14°C° 0 mm 2 mps 711 mmHg 77%
    17:00 +13°C° 0 mm 2 mps 711 mmHg 81%
    18:00 +12°C° 0 mm 2 mps 711 mmHg 85%
    19:00 +10°C° 0 mm 2 mps 711 mmHg 88%
    20:00 +9°C° 0 mm 2 mps 711 mmHg 89%
    21:00 +9°C° 0 mm 2 mps 711 mmHg 89%
    22:00 +9°C° 0 mm 2 mps 711 mmHg 89%
    23:00 +8°C° 0 mm 2 mps 711 mmHg 89%

    Day after tomorrow, 18 October, Friday

    Time Temperature Precipitation Wind Pressure Humidity
    00:00 +9°C° 0 mm 1 mps 711 mmHg 88%
    01:00 +9°C° 0 mm 1 mps 711 mmHg 88%
    02:00 +9°C° 0 mm 1 mps 711 mmHg 86%
    03:00 +9°C° 0 mm 1 mps 711 mmHg 85%
    04:00 +10°C° 0 mm 1 mps 711 mmHg 83%
    05:00 +10°C° 0 mm 1 mps 711 mmHg 82%
    06:00 +10°C° 0 mm 1 mps 711 mmHg 81%
    07:00 +10°C° 0 mm 1 mps 711 mmHg 80%
    08:00 +12°C° 0 mm 1 mps 711 mmHg 75%
    09:00 +13°C° 0 mm 1 mps 711 mmHg 70%
    10:00 +15°C° 0 mm 1 mps 711 mmHg 65%
    11:00 +16°C° 0 mm 1 mps 711 mmHg 63%
    12:00 +16°C° 0 mm 1 mps 711 mmHg 62%
    13:00 +18°C° 0 mm 1 mps 711 mmHg 60%
    14:00 +16°C° 0 mm 1 mps 711 mmHg 65%
    15:00 +16°C° 0 mm 1 mps 710 mmHg 69%
    16:00 +15°C° 0 mm 1 mps 710 mmHg 74%
    17:00 +14°C° 0 mm 1 mps 710 mmHg 79%
    18:00 +13°C° 0 mm 1 mps 710 mmHg 83%
    19:00 +11°C° 0 mm 1 mps 710 mmHg 88%
    20:00 +11°C° 0 mm 1 mps 710 mmHg 88%
    21:00 +11°C° 0 mm 1 mps 710 mmHg 88%
    22:00 +11°C° 0 mm 1 mps 709 mmHg 87%
    23:00 +11°C° 0 mm 1 mps 709 mmHg 86%

    19 October, Saturday

    Time Temperature Precipitation Wind Pressure Humidity
    00:00 +10°C° 0 mm 1 mps 709 mmHg 86%
    01:00 +10°C° 0 mm 1 mps 708 mmHg 85%
    02:00 +10°C° 0 mm 1 mps 708 mmHg 85%
    03:00 +10°C° 0 mm 1 mps 708 mmHg 85%
    04:00 +10°C° 0 mm 1 mps 707 mmHg 84%
    05:00 +10°C° 0 mm 1 mps 707 mmHg 85%
    06:00 +11°C° 0 mm 1 mps 707 mmHg 86%
    07:00 +10°C° 0 mm 2 mps 707 mmHg 87%
    08:00 +12°C° 0 mm 2 mps 706 mmHg 84%
    09:00 +12°C° 0 mm 3 mps 706 mmHg 81%
    10:00 +12°C° 0 mm 3 mps 706 mmHg 78%
    11:00 +13°C° 0 mm 3 mps 706 mmHg 77%
    12:00 +13°C° 0 mm 4 mps 706 mmHg 77%
    13:00 +13°C° 0 mm 4 mps 706 mmHg 76%
    14:00 +13°C° 0 mm 3 mps 706 mmHg 77%
    15:00 +13°C° 0 mm 3 mps 705 mmHg 79%
    16:00 +14°C° 0 mm 2 mps 705 mmHg 81%
    17:00 +12°C° 0 mm 2 mps 705 mmHg 85%
    18:00 +10°C° 0 mm 2 mps 705 mmHg 89%
    19:00 +9°C° 0 mm 2 mps 705 mmHg 93%
    20:00 +9°C° 0 mm 2 mps 705 mmHg 92%
    21:00 +9°C° 0 mm 2 mps 705 mmHg 92%
    22:00 +9°C° 0 mm 2 mps 705 mmHg 91%
    23:00 +8°C° 0 mm 2 mps 706 mmHg 91%

    20 October, Sunday

    Time Temperature Precipitation Wind Pressure Humidity
    00:00 +9°C° 0 mm 1 mps 706 mmHg 91%
    01:00 +9°C° 0 mm 1 mps 706 mmHg 90%
    02:00 +9°C° 0 mm 1 mps 706 mmHg 91%
    03:00 +9°C° 0 mm 1 mps 706 mmHg 91%
    04:00 +9°C° 0 mm 1 mps 706 mmHg 92%
    05:00 +9°C° 0 mm 1 mps 707 mmHg 92%
    06:00 +9°C° 0 mm 1 mps 707 mmHg 93%
    07:00 +9°C° 0 mm 1 mps 708 mmHg 93%
    08:00 +10°C° 0.1 mm 1 mps 708 mmHg 92%
    09:00 +10°C° 0.1 mm 1 mps 709 mmHg 91%
    10:00 +11°C° 0.1 mm 1 mps 709 mmHg 89%
    11:00 +12°C° 0 mm 1 mps 709 mmHg 86%
    12:00 +12°C° 0 mm 1 mps 710 mmHg 83%
    13:00 +13°C° 0 mm 1 mps 710 mmHg 80%
    14:00 +12°C° 0 mm 1 mps 710 mmHg 81%
    15:00 +12°C° 0 mm 1 mps 710 mmHg 83%
    16:00 +11°C° 0 mm 0 mps 710 mmHg 85%
    17:00 +10°C° 0 mm 0 mps 710 mmHg 87%
    18:00 +10°C° 0 mm 0 mps 710 mmHg 88%
    19:00 +9°C° 0 mm 0 mps 710 mmHg 90%
    20:00 +10°C° 0 mm 1 mps 710 mmHg 89%
    21:00 +11°C° 0 mm 1 mps 710 mmHg 88%
    22:00 +11°C° 0 mm 1 mps 710 mmHg 87%
    23:00 +11°C° 0.2 mm 1 mps 710 mmHg 89%

    21 October, Monday

    Time Temperature Precipitation Wind Pressure Humidity
    00:00 +11°C° 0.2 mm 1 mps 710 mmHg 91%
    01:00 +11°C° 0.2 mm 1 mps 710 mmHg 93%
    02:00 +11°C° 0 mm 1 mps 710 mmHg 93%
    03:00 +11°C° 0 mm 1 mps 710 mmHg 94%
    04:00 +11°C° 0 mm 1 mps 709 mmHg 95%
    05:00 +11°C° 0 mm 1 mps 709 mmHg 95%
    06:00 +11°C° 0 mm 1 mps 709 mmHg 94%
    07:00 +11°C° 0 mm 1 mps 709 mmHg 94%
    08:00 +12°C° 0 mm 1 mps 709 mmHg 91%
    09:00 +12°C° 0 mm 1 mps 710 mmHg 87%
    10:00 +13°C° 0 mm 1 mps 710 mmHg 84%
    11:00 +14°C° 0 mm 1 mps 710 mmHg 81%
    12:00 +14°C° 0 mm 1 mps 710 mmHg 79%
    13:00 +15°C° 0 mm 1 mps 710 mmHg 76%
    14:00 +14°C° 0 mm 1 mps 710 mmHg 80%
    15:00 +14°C° 0 mm 1 mps 710 mmHg 83%
    16:00 +14°C° 0 mm 1 mps 710 mmHg 87%
    17:00 +13°C° 0.1 mm 1 mps 710 mmHg 90%
    18:00 +12°C° 0.1 mm 1 mps 710 mmHg 92%
    19:00 +12°C° 0.1 mm 2 mps 711 mmHg 95%
    20:00 +12°C° 0.3 mm 2 mps 711 mmHg 95%
    21:00 +12°C° 0.3 mm 2 mps 711 mmHg 95%
    22:00 +12°C° 0.3 mm 2 mps 711 mmHg 95%
    23:00 +12°C° 0.5 mm 2 mps 711 mmHg 95%
    Show more